Time,TemperatureF,DewpointF,PressureIn,WindDirection,WindDirectionDegrees,WindSpeedMPH,WindSpeedGustMPH,Humidity,HourlyPrecipIn,Conditions,Clouds,dailyrainin,SoftwareType,DateUTC
2013-11-06 00:00:00,41.5,31.7,30.40,NNW,345,0.0,0.0,68,0.00,,,0.00,Wunderground v.1.13,2013-11-06 05:00:00,
2013-11-06 00:01:00,41.5,31.4,30.39,NNW,345,0.0,0.0,67,0.00,,,0.00,Wunderground v.1.13,2013-11-06 05:01:00,
2013-11-06 00:02:00,41.4,31.3,30.40,NNW,345,0.0,0.0,67,0.00,,,0.00,Wunderground v.1.13,2013-11-06 05:02:00,
2013-11-06 00:03:00,41.4,31.6,30.40,NNW,345,0.0,0.0,68,0.00,,,0.00,Wunderground v.1.13,2013-11-06 05:03:00,
2013-11-06 00:05:00,41.3,31.2,30.40,NNW,345,0.0,0.0,67,0.00,,,0.00,Wunderground v.1.13,2013-11-06 05:05:00,
2013-11-06 00:10:00,41.2,31.4,30.40,NNW,345,0.0,0.0,68,0.00,,,0.00,Wunderground v.1.13,2013-11-06 05:10:00,
2013-11-06 00:12:00,41.2,31.4,30.40,NNW,345,0.0,0.0,68,0.00,,,0.00,Wunderground v.1.13,2013-11-06 05:12:00,
2013-11-06 00:17:00,41.1,31.7,30.40,NNW,345,0.0,0.0,69,0.00,,,0.00,Wunderground v.1.13,2013-11-06 05:17:00,
2013-11-06 00:23:00,41.0,32.0,30.39,NNW,345,0.0,0.0,70,0.00,,,0.00,Wunderground v.1.13,2013-11-06 05:23:00,
2013-11-06 00:28:00,40.9,31.9,30.39,NNW,345,0.0,0.0,70,0.00,,,0.00,Wunderground v.1.13,2013-11-06 05:28:00,
2013-11-06 00:34:00,40.7,31.7,30.39,NNW,345,0.0,0.0,70,0.00,,,0.00,Wunderground v.1.13,2013-11-06 05:34:00,
2013-11-06 00:39:00,40.4,31.7,30.39,NNW,345,0.0,0.0,71,0.00,,,0.00,Wunderground v.1.13,2013-11-06 05:39:00,
2013-11-06 00:45:00,40.0,31.7,30.39,NNW,345,0.0,0.0,72,0.00,,,0.00,Wunderground v.1.13,2013-11-06 05:45:00,
2013-11-06 00:51:00,39.7,31.4,30.39,NNW,345,0.0,0.0,72,0.00,,,0.00,Wunderground v.1.13,2013-11-06 05:51:00,
2013-11-06 00:56:00,39.6,31.7,30.39,NNW,345,0.0,0.0,73,0.00,,,0.00,Wunderground v.1.13,2013-11-06 05:56:00,
2013-11-06 01:02:00,39.4,31.8,30.39,NNW,345,0.0,0.0,74,0.00,,,0.00,Wunderground v.1.13,2013-11-06 06:02:00,
2013-11-06 01:08:00,39.1,31.8,30.38,NNW,345,0.0,0.0,75,0.00,,,0.00,Wunderground v.1.13,2013-11-06 06:08:00,
2013-11-06 01:14:00,38.8,31.6,30.38,NNW,345,0.0,0.0,75,0.00,,,0.00,Wunderground v.1.13,2013-11-06 06:14:00,
2013-11-06 01:19:00,38.7,31.8,30.39,NNW,345,0.0,0.0,76,0.00,,,0.00,Wunderground v.1.13,2013-11-06 06:19:00,
2013-11-06 01:25:00,38.5,31.6,30.39,NNW,345,0.0,0.0,76,0.00,,,0.00,Wunderground v.1.13,2013-11-06 06:25:00,
2013-11-06 01:31:00,38.5,31.9,30.38,NNW,345,0.0,0.0,77,0.00,,,0.00,Wunderground v.1.13,2013-11-06 06:31:00,
2013-11-06 01:37:00,38.3,31.7,30.38,NNW,345,0.0,0.0,77,0.00,,,0.00,Wunderground v.1.13,2013-11-06 06:37:00,
2013-11-06 01:45:00,38.1,31.8,30.38,NNW,345,0.0,0.0,78,0.00,,,0.00,Wunderground v.1.13,2013-11-06 06:45:00,
2013-11-06 01:51:00,37.9,31.7,30.38,NNW,345,0.0,0.0,78,0.00,,,0.00,Wunderground v.1.13,2013-11-06 06:51:00,
2013-11-06 01:56:00,37.8,31.6,30.38,NNW,345,0.0,0.0,78,0.00,,,0.00,Wunderground v.1.13,2013-11-06 06:56:00,
2013-11-06 02:02:00,37.7,31.5,30.38,NNW,345,0.0,0.0,78,0.00,,,0.00,Wunderground v.1.13,2013-11-06 07:02:00,
2013-11-06 02:08:00,37.5,31.6,30.37,NNW,345,0.0,0.0,79,0.00,,,0.00,Wunderground v.1.13,2013-11-06 07:08:00,
2013-11-06 02:14:00,37.4,31.8,30.37,NNW,345,0.0,0.0,80,0.00,,,0.00,Wunderground v.1.13,2013-11-06 07:14:00,
2013-11-06 02:19:00,37.4,31.8,30.37,NNW,345,0.0,0.0,80,0.00,,,0.00,Wunderground v.1.13,2013-11-06 07:19:00,
2013-11-06 02:24:00,37.4,32.1,30.37,NNW,345,0.0,0.0,81,0.00,,,0.00,Wunderground v.1.13,2013-11-06 07:24:00,
2013-11-06 02:30:00,37.4,32.1,30.37,NNW,345,0.0,0.0,81,0.00,,,0.00,Wunderground v.1.13,2013-11-06 07:30:00,
2013-11-06 02:36:00,37.5,32.5,30.37,NNW,345,0.0,0.0,82,0.00,,,0.00,Wunderground v.1.13,2013-11-06 07:36:00,
2013-11-06 02:41:00,37.7,32.7,30.36,NNW,345,0.0,0.0,82,0.00,,,0.00,Wunderground v.1.13,2013-11-06 07:41:00,
2013-11-06 02:47:00,37.8,33.1,30.36,NNW,345,0.0,0.0,83,0.00,,,0.00,Wunderground v.1.13,2013-11-06 07:47:00,
2013-11-06 02:53:00,38.2,33.8,30.36,NNW,345,0.0,0.0,84,0.00,,,0.00,Wunderground v.1.13,2013-11-06 07:53:00,
2013-11-06 02:58:00,38.5,34.4,30.35,NNW,345,0.0,0.0,85,0.00,,,0.00,Wunderground v.1.13,2013-11-06 07:58:00,
2013-11-06 03:04:00,38.9,34.8,30.36,NNW,345,0.0,0.0,85,0.00,,,0.00,Wunderground v.1.13,2013-11-06 08:04:00,
2013-11-06 03:10:00,39.2,35.1,30.35,NNW,345,0.0,0.0,85,0.00,,,0.00,Wunderground v.1.13,2013-11-06 08:10:00,
2013-11-06 03:15:00,39.4,35.3,30.35,NNW,345,0.0,0.0,85,0.00,,,0.00,Wunderground v.1.13,2013-11-06 08:15:00,
2013-11-06 03:21:00,39.6,35.2,30.35,NNW,345,0.0,0.0,84,0.00,,,0.00,Wunderground v.1.13,2013-11-06 08:21:00,
2013-11-06 03:26:00,39.8,35.7,30.35,NNW,345,0.0,0.0,85,0.00,,,0.00,Wunderground v.1.13,2013-11-06 08:26:00,
2013-11-06 03:32:00,40.1,36.0,30.34,NNW,345,0.0,0.0,85,0.00,,,0.00,Wunderground v.1.13,2013-11-06 08:32:00,
2013-11-06 03:37:00,40.2,35.8,30.35,NNW,345,0.0,0.0,84,0.00,,,0.00,Wunderground v.1.13,2013-11-06 08:37:00,
2013-11-06 03:43:00,40.4,36.2,30.34,NNW,345,0.0,0.0,85,0.00,,,0.00,Wunderground v.1.13,2013-11-06 08:43:00,
2013-11-06 03:48:00,40.5,36.3,30.34,NNW,345,0.0,0.0,85,0.00,,,0.00,Wunderground v.1.13,2013-11-06 08:48:00,
2013-11-06 03:54:00,40.7,36.5,30.34,NNW,345,0.0,0.0,85,0.00,,,0.00,Wunderground v.1.13,2013-11-06 08:54:00,
2013-11-06 03:59:00,40.9,36.7,30.34,NNW,345,0.0,0.0,85,0.00,,,0.00,Wunderground v.1.13,2013-11-06 08:59:00,
2013-11-06 04:05:00,41.2,37.0,30.34,NNW,345,0.0,0.0,85,0.00,,,0.00,Wunderground v.1.13,2013-11-06 09:05:00,
2013-11-06 04:11:00,41.6,37.7,30.34,NNW,345,0.0,0.0,86,0.00,,,0.00,Wunderground v.1.13,2013-11-06 09:11:00,
2013-11-06 04:17:00,41.9,38.0,30.34,NNW,345,0.0,0.0,86,0.00,,,0.00,Wunderground v.1.13,2013-11-06 09:17:00,
2013-11-06 04:22:00,42.2,38.6,30.34,NNW,345,0.0,0.0,87,0.00,,,0.00,Wunderground v.1.13,2013-11-06 09:22:00,
2013-11-06 04:28:00,42.6,39.0,30.34,NNW,345,0.0,0.0,87,0.00,,,0.00,Wunderground v.1.13,2013-11-06 09:28:00,
2013-11-06 04:34:00,42.9,39.3,30.34,NNW,345,0.0,0.0,87,0.00,,,0.00,Wunderground v.1.13,2013-11-06 09:34:00,
2013-11-06 04:39:00,43.2,39.6,30.34,NNW,345,0.0,0.0,87,0.00,,,0.00,Wunderground v.1.13,2013-11-06 09:39:00,
2013-11-06 04:45:00,43.6,40.3,30.34,NNW,345,0.0,0.0,88,0.00,,,0.00,Wunderground v.1.13,2013-11-06 09:45:00,
2013-11-06 04:51:00,43.9,40.6,30.34,NNW,345,0.0,0.0,88,0.00,,,0.00,Wunderground v.1.13,2013-11-06 09:51:00,
2013-11-06 04:56:00,44.1,40.8,30.34,NNW,345,0.0,0.0,88,0.00,,,0.00,Wunderground v.1.13,2013-11-06 09:56:00,
2013-11-06 05:02:00,44.2,40.6,30.34,NNW,345,0.0,0.0,87,0.00,,,0.00,Wunderground v.1.13,2013-11-06 10:02:00,
2013-11-06 05:08:00,44.3,40.7,30.34,NNW,345,0.0,0.0,87,0.00,,,0.00,Wunderground v.1.13,2013-11-06 10:08:00,
2013-11-06 05:14:00,44.3,40.7,30.34,NNW,345,0.0,0.0,87,0.00,,,0.00,Wunderground v.1.13,2013-11-06 10:14:00,
2013-11-06 05:20:00,44.2,40.3,30.34,NNW,345,0.0,0.0,86,0.00,,,0.00,Wunderground v.1.13,2013-11-06 10:20:00,
2013-11-06 05:26:00,44.2,40.3,30.34,NNW,345,0.0,0.0,86,0.00,,,0.00,Wunderground v.1.13,2013-11-06 10:26:00,
2013-11-06 05:31:00,44.1,40.2,30.34,NNW,345,0.0,0.0,86,0.00,,,0.00,Wunderground v.1.13,2013-11-06 10:31:00,
2013-11-06 05:37:00,43.9,39.7,30.33,NNW,345,0.0,0.0,85,0.00,,,0.00,Wunderground v.1.13,2013-11-06 10:37:00,
2013-11-06 05:43:00,43.8,39.6,30.34,NNW,345,0.0,0.0,85,0.00,,,0.00,Wunderground v.1.13,2013-11-06 10:43:00,
2013-11-06 05:49:00,43.6,39.4,30.33,NNW,345,0.0,0.0,85,0.00,,,0.00,Wunderground v.1.13,2013-11-06 10:49:00,
2013-11-06 05:54:00,43.4,39.2,30.33,NNW,345,0.0,0.0,85,0.00,,,0.00,Wunderground v.1.13,2013-11-06 10:54:00,
2013-11-06 06:00:00,43.1,38.9,30.33,NNW,345,0.0,0.0,85,0.00,,,0.00,Wunderground v.1.13,2013-11-06 11:00:00,
2013-11-06 06:05:00,42.9,38.7,30.33,NNW,345,0.0,0.0,85,0.00,,,0.00,Wunderground v.1.13,2013-11-06 11:05:00,
2013-11-06 06:10:00,42.7,38.5,30.33,NNW,345,0.0,0.0,85,0.00,,,0.00,Wunderground v.1.13,2013-11-06 11:10:00,
2013-11-06 06:16:00,42.5,38.3,30.33,NNW,345,0.0,0.0,85,0.00,,,0.00,Wunderground v.1.13,2013-11-06 11:16:00,
2013-11-06 06:21:00,42.4,38.2,30.33,NNW,345,0.0,0.0,85,0.00,,,0.00,Wunderground v.1.13,2013-11-06 11:21:00,
2013-11-06 06:27:00,42.2,38.0,30.33,NNW,345,0.0,0.0,85,0.00,,,0.00,Wunderground v.1.13,2013-11-06 11:27:00,
2013-11-06 06:32:00,42.0,37.8,30.33,NNW,345,0.0,0.0,85,0.00,,,0.00,Wunderground v.1.13,2013-11-06 11:32:00,
2013-11-06 06:38:00,41.8,37.6,30.33,NNW,345,0.0,0.0,85,0.00,,,0.00,Wunderground v.1.13,2013-11-06 11:38:00,
2013-11-06 06:43:00,41.6,37.7,30.33,NNW,345,0.0,0.0,86,0.00,,,0.00,Wunderground v.1.13,2013-11-06 11:43:00,
2013-11-06 06:49:00,41.4,37.2,30.32,NNW,345,0.0,0.0,85,0.00,,,0.00,Wunderground v.1.13,2013-11-06 11:49:00,
2013-11-06 06:54:00,41.3,37.4,30.33,NNW,345,0.0,0.0,86,0.00,,,0.00,Wunderground v.1.13,2013-11-06 11:54:00,
2013-11-06 07:00:00,41.1,37.2,30.32,NNW,345,0.0,0.0,86,0.00,,,0.00,Wunderground v.1.13,2013-11-06 12:00:00,
2013-11-06 07:06:00,40.9,37.0,30.32,NNW,345,0.0,0.0,86,0.00,,,0.00,Wunderground v.1.13,2013-11-06 12:06:00,
2013-11-06 07:11:00,40.7,36.8,30.32,NNW,345,0.0,0.0,86,0.00,,,0.00,Wunderground v.1.13,2013-11-06 12:11:00,
2013-11-06 07:17:00,40.7,37.1,30.32,NNW,345,0.0,0.0,87,0.00,,,0.00,Wunderground v.1.13,2013-11-06 12:17:00,
2013-11-06 07:23:00,40.6,37.0,30.32,NNW,345,0.0,0.0,87,0.00,,,0.00,Wunderground v.1.13,2013-11-06 12:23:00,
2013-11-06 07:28:00,40.6,37.0,30.32,NNW,345,0.0,0.0,87,0.00,,,0.00,Wunderground v.1.13,2013-11-06 12:28:00,
2013-11-06 07:34:00,40.9,37.6,30.32,NNW,345,0.0,0.0,88,0.00,,,0.00,Wunderground v.1.13,2013-11-06 12:34:00,
2013-11-06 07:40:00,41.6,38.6,30.32,NNW,345,0.0,0.0,89,0.00,,,0.00,Wunderground v.1.13,2013-11-06 12:40:00,
2013-11-06 07:46:00,42.1,39.1,30.32,NNW,345,0.0,0.0,89,0.00,,,0.00,Wunderground v.1.13,2013-11-06 12:46:00,
2013-11-06 07:51:00,42.6,39.6,30.32,NNW,345,0.0,0.0,89,0.00,,,0.00,Wunderground v.1.13,2013-11-06 12:51:00,
2013-11-06 07:57:00,43.4,40.4,30.32,NNW,345,0.0,0.0,89,0.00,,,0.00,Wunderground v.1.13,2013-11-06 12:57:00,
2013-11-06 08:02:00,44.5,41.5,30.32,NNW,345,0.0,0.0,89,0.00,,,0.00,Wunderground v.1.13,2013-11-06 13:02:00,
2013-11-06 08:07:00,45.3,42.2,30.32,NNW,345,0.0,0.0,89,0.00,,,0.00,Wunderground v.1.13,2013-11-06 13:07:00,
2013-11-06 08:13:00,46.6,43.2,30.32,NNW,345,0.0,0.0,88,0.00,,,0.00,Wunderground v.1.13,2013-11-06 13:13:00,
2013-11-06 08:19:00,48.1,44.4,30.32,NNW,345,0.0,0.0,87,0.00,,,0.00,Wunderground v.1.13,2013-11-06 13:19:00,
2013-11-06 08:25:00,49.8,45.5,30.32,NNW,345,0.0,0.0,85,0.00,,,0.00,Wunderground v.1.13,2013-11-06 13:25:00,
2013-11-06 08:31:00,51.2,45.6,30.32,NNW,345,0.0,0.0,81,0.00,,,0.00,Wunderground v.1.13,2013-11-06 13:31:00,
2013-11-06 08:37:00,52.3,46.3,30.32,NNW,345,0.0,0.0,80,0.00,,,0.00,Wunderground v.1.13,2013-11-06 13:37:00,
2013-11-06 08:42:00,53.3,46.3,30.32,NNW,345,0.0,0.0,77,0.00,,,0.00,Wunderground v.1.13,2013-11-06 13:42:00,
2013-11-06 08:48:00,54.2,46.8,30.32,NNW,345,0.0,0.0,76,0.00,,,0.00,Wunderground v.1.13,2013-11-06 13:48:00,
2013-11-06 08:54:00,54.9,47.1,30.32,NNW,345,0.0,0.0,75,0.00,,,0.00,Wunderground v.1.13,2013-11-06 13:54:00,
2013-11-06 08:59:00,56.0,48.2,30.32,NNW,345,0.0,0.0,75,0.00,,,0.00,Wunderground v.1.13,2013-11-06 13:59:00,
2013-11-06 09:05:00,57.1,48.5,30.32,NNW,345,0.0,0.0,73,0.00,,,0.00,Wunderground v.1.13,2013-11-06 14:05:00,
2013-11-06 09:11:00,57.6,49.0,30.32,NNW,345,0.0,0.0,73,0.00,,,0.00,Wunderground v.1.13,2013-11-06 14:11:00,
2013-11-06 09:16:00,58.5,49.5,30.32,NNW,345,0.0,0.0,72,0.00,,,0.00,Wunderground v.1.13,2013-11-06 14:16:00,
2013-11-06 09:22:00,59.4,50.0,30.31,NNW,345,0.0,0.0,71,0.00,,,0.00,Wunderground v.1.13,2013-11-06 14:22:00,
2013-11-06 09:27:00,60.4,50.6,30.32,NNW,345,0.0,0.0,70,0.00,,,0.00,Wunderground v.1.13,2013-11-06 14:27:00,
2013-11-06 09:33:00,60.9,50.7,30.32,NNW,345,0.0,0.0,69,0.00,,,0.00,Wunderground v.1.13,2013-11-06 14:33:00,
2013-11-06 09:39:00,61.2,50.9,30.32,NNW,345,0.0,1.0,69,0.00,,,0.00,Wunderground v.1.13,2013-11-06 14:39:00,
2013-11-06 09:44:00,61.8,51.1,30.32,NNW,345,0.0,1.0,68,0.00,,,0.00,Wunderground v.1.13,2013-11-06 14:44:00,
2013-11-06 09:50:00,63.1,52.0,30.32,NNW,345,0.0,0.0,67,0.00,,,0.00,Wunderground v.1.13,2013-11-06 14:50:00,
2013-11-06 09:56:00,64.4,52.4,30.32,NNW,345,0.0,0.0,65,0.00,,,0.00,Wunderground v.1.13,2013-11-06 14:56:00,
2013-11-06 10:01:00,64.4,52.4,30.31,NNW,345,0.0,0.0,65,0.00,,,0.00,Wunderground v.1.13,2013-11-06 15:01:00,
2013-11-06 10:07:00,64.5,52.5,30.31,NNW,345,0.0,0.0,65,0.00,,,0.00,Wunderground v.1.13,2013-11-06 15:07:00,
2013-11-06 10:13:00,65.4,53.3,30.31,NNW,345,0.0,0.0,65,0.00,,,0.00,Wunderground v.1.13,2013-11-06 15:13:00,
2013-11-06 10:19:00,66.0,53.0,30.31,NNW,345,0.0,0.0,63,0.00,,,0.00,Wunderground v.1.13,2013-11-06 15:19:00,
2013-11-06 10:24:00,66.1,53.1,30.31,NNW,345,0.0,0.0,63,0.00,,,0.00,Wunderground v.1.13,2013-11-06 15:24:00,
2013-11-06 10:30:00,66.2,53.7,30.31,NNW,345,1.0,1.0,64,0.00,,,0.00,Wunderground v.1.13,2013-11-06 15:30:00,
2013-11-06 10:35:00,67.1,53.6,30.31,NNW,345,2.0,5.0,62,0.00,,,0.00,Wunderground v.1.13,2013-11-06 15:35:00,
2013-11-06 10:40:00,67.3,53.8,30.31,NNW,333,3.0,3.0,62,0.00,,,0.00,Wunderground v.1.13,2013-11-06 15:40:00,
2013-11-06 10:46:00,67.2,53.7,30.31,NNW,327,3.0,4.0,62,0.00,,,0.00,Wunderground v.1.13,2013-11-06 15:46:00,
2013-11-06 10:51:00,67.6,54.1,30.31,NW,317,3.0,9.0,62,0.00,,,0.00,Wunderground v.1.13,2013-11-06 15:51:00,
2013-11-06 10:57:00,67.7,53.8,30.31,NW,317,3.0,3.0,61,0.00,,,0.00,Wunderground v.1.13,2013-11-06 15:57:00,
2013-11-06 11:03:00,68.0,54.0,30.30,NW,317,2.0,6.0,61,0.00,,,0.00,Wunderground v.1.13,2013-11-06 16:03:00,
2013-11-06 11:08:00,68.3,54.3,30.30,NW,319,2.0,6.0,61,0.00,,,0.00,Wunderground v.1.13,2013-11-06 16:08:00,
2013-11-06 11:14:00,69.2,54.7,30.30,NW,319,2.0,3.0,60,0.00,,,0.00,Wunderground v.1.13,2013-11-06 16:14:00,
2013-11-06 11:19:00,69.4,54.9,30.30,NW,319,2.0,5.0,60,0.00,,,0.00,Wunderground v.1.13,2013-11-06 16:19:00,
2013-11-06 11:25:00,70.1,54.6,30.30,NW,305,3.0,3.0,58,0.00,,,0.00,Wunderground v.1.13,2013-11-06 16:25:00,
2013-11-06 11:31:00,70.2,54.2,30.29,NW,309,3.0,5.0,57,0.00,,,0.00,Wunderground v.1.13,2013-11-06 16:31:00,
2013-11-06 11:37:00,70.2,53.8,30.29,NW,312,3.0,6.0,56,0.00,,,0.00,Wunderground v.1.13,2013-11-06 16:37:00,
2013-11-06 11:42:00,70.2,53.8,30.29,NW,308,4.0,7.0,56,0.00,,,0.00,Wunderground v.1.13,2013-11-06 16:42:00,
2013-11-06 11:48:00,70.1,53.7,30.29,NW,309,4.0,6.0,56,0.00,,,0.00,Wunderground v.1.13,2013-11-06 16:48:00,
2013-11-06 11:54:00,70.5,53.6,30.29,NW,309,3.0,4.0,55,0.00,,,0.00,Wunderground v.1.13,2013-11-06 16:54:00,
2013-11-06 11:59:00,70.4,53.0,30.29,NW,310,3.0,7.0,54,0.00,,,0.00,Wunderground v.1.13,2013-11-06 16:59:00,
2013-11-06 12:05:00,70.1,53.2,30.29,NW,307,5.0,7.0,55,0.00,,,0.00,Wunderground v.1.13,2013-11-06 17:05:00,
2013-11-06 12:11:00,69.9,53.5,30.28,NW,313,4.0,4.0,56,0.00,,,0.00,Wunderground v.1.13,2013-11-06 17:11:00,
2013-11-06 12:16:00,69.7,53.8,30.28,NNW,327,2.0,2.0,57,0.00,,,0.00,Wunderground v.1.13,2013-11-06 17:16:00,
2013-11-06 12:22:00,69.4,54.0,30.27,NNW,331,3.0,4.0,58,0.00,,,0.00,Wunderground v.1.13,2013-11-06 17:22:00,
2013-11-06 12:27:00,69.8,53.9,30.27,NNW,331,2.0,3.0,57,0.00,,,0.00,Wunderground v.1.13,2013-11-06 17:27:00,
2013-11-06 12:32:00,69.8,53.9,30.27,NNW,331,1.0,3.0,57,0.00,,,0.00,Wunderground v.1.13,2013-11-06 17:32:00,
2013-11-06 12:38:00,70.2,54.2,30.26,NNW,331,0.0,5.0,57,0.00,,,0.00,Wunderground v.1.13,2013-11-06 17:38:00,
2013-11-06 12:44:00,70.7,54.7,30.25,NNW,329,1.0,5.0,57,0.00,,,0.00,Wunderground v.1.13,2013-11-06 17:44:00,
2013-11-06 12:49:00,70.9,54.4,30.25,NNW,329,2.0,5.0,56,0.00,,,0.00,Wunderground v.1.13,2013-11-06 17:49:00,
2013-11-06 12:55:00,71.1,54.6,30.24,NNW,331,2.0,2.0,56,0.00,,,0.00,Wunderground v.1.13,2013-11-06 17:55:00,
2013-11-06 13:00:00,71.3,54.8,30.24,NNW,331,1.0,1.0,56,0.00,,,0.00,Wunderground v.1.13,2013-11-06 18:00:00,
2013-11-06 13:06:00,71.9,54.9,30.23,NNW,331,1.0,1.0,55,0.00,,,0.00,Wunderground v.1.13,2013-11-06 18:06:00,
2013-11-06 13:12:00,71.9,54.3,30.23,NNW,331,1.0,4.0,54,0.00,,,0.00,Wunderground v.1.13,2013-11-06 18:12:00,
2013-11-06 13:17:00,72.1,55.0,30.23,NNW,331,1.0,3.0,55,0.00,,,0.00,Wunderground v.1.13,2013-11-06 18:17:00,
2013-11-06 13:23:00,72.6,55.0,30.22,NNW,330,2.0,4.0,54,0.00,,,0.00,Wunderground v.1.13,2013-11-06 18:23:00,
2013-11-06 13:29:00,72.9,55.3,30.22,NNW,329,3.0,3.0,54,0.00,,,0.00,Wunderground v.1.13,2013-11-06 18:29:00,
2013-11-06 13:35:00,73.1,54.9,30.22,NNW,329,1.0,1.0,53,0.00,,,0.00,Wunderground v.1.13,2013-11-06 18:35:00,
2013-11-06 13:40:00,73.5,55.3,30.22,NNW,327,1.0,5.0,53,0.00,,,0.00,Wunderground v.1.13,2013-11-06 18:40:00,
2013-11-06 13:46:00,73.9,55.2,30.21,WNW,288,3.0,6.0,52,0.00,,,0.00,Wunderground v.1.13,2013-11-06 18:46:00,
2013-11-06 13:51:00,74.6,55.3,30.21,WNW,286,4.0,5.0,51,0.00,,,0.00,Wunderground v.1.13,2013-11-06 18:51:00,
2013-11-06 13:57:00,74.8,54.9,30.21,SW,218,4.0,6.0,50,0.00,,,0.00,Wunderground v.1.13,2013-11-06 18:57:00,
2013-11-06 14:02:00,74.3,55.0,30.20,SW,232,5.0,6.0,51,0.00,,,0.00,Wunderground v.1.13,2013-11-06 19:02:00,
2013-11-06 14:08:00,74.1,54.8,30.20,WSW,253,5.0,7.0,51,0.00,,,0.00,Wunderground v.1.13,2013-11-06 19:08:00,
2013-11-06 14:13:00,74.3,55.0,30.20,WSW,248,5.0,9.0,51,0.00,,,0.00,Wunderground v.1.13,2013-11-06 19:13:00,
2013-11-06 14:19:00,73.9,54.6,30.20,SW,218,4.0,5.0,51,0.00,,,0.00,Wunderground v.1.13,2013-11-06 19:19:00,
2013-11-06 14:24:00,73.9,54.6,30.19,SW,214,3.0,6.0,51,0.00,,,0.00,Wunderground v.1.13,2013-11-06 19:24:00,
2013-11-06 14:30:00,74.3,54.5,30.19,SSW,207,3.0,5.0,50,0.00,,,0.00,Wunderground v.1.13,2013-11-06 19:30:00,
2013-11-06 14:35:00,74.6,54.7,30.19,WSW,244,5.0,5.0,50,0.00,,,0.00,Wunderground v.1.13,2013-11-06 19:35:00,
2013-11-06 14:41:00,75.0,54.5,30.19,WSW,241,4.0,4.0,49,0.00,,,0.00,Wunderground v.1.13,2013-11-06 19:41:00,
2013-11-06 14:46:00,75.2,54.7,30.18,WSW,242,3.0,6.0,49,0.00,,,0.00,Wunderground v.1.13,2013-11-06 19:46:00,
2013-11-06 14:52:00,75.2,54.7,30.19,WSW,250,5.0,6.0,49,0.00,,,0.00,Wunderground v.1.13,2013-11-06 19:52:00,
2013-11-06 14:57:00,74.9,54.4,30.18,WSW,240,5.0,11.0,49,0.00,,,0.00,Wunderground v.1.13,2013-11-06 19:57:00,
2013-11-06 15:02:00,74.5,54.1,30.18,WSW,238,5.0,9.0,49,0.00,,,0.00,Wunderground v.1.13,2013-11-06 20:02:00,
2013-11-06 15:08:00,74.2,54.4,30.18,SW,227,4.0,6.0,50,0.00,,,0.00,Wunderground v.1.13,2013-11-06 20:08:00,
2013-11-06 15:14:00,74.3,54.5,30.18,SSW,202,4.0,7.0,50,0.00,,,0.00,Wunderground v.1.13,2013-11-06 20:14:00,
2013-11-06 15:19:00,74.6,54.7,30.18,SSW,202,4.0,7.0,50,0.00,,,0.00,Wunderground v.1.13,2013-11-06 20:19:00,
2013-11-06 15:25:00,75.1,54.6,30.18,SSW,201,4.0,6.0,49,0.00,,,0.00,Wunderground v.1.13,2013-11-06 20:25:00,
2013-11-06 15:30:00,75.4,54.9,30.18,WSW,248,4.0,4.0,49,0.00,,,0.00,Wunderground v.1.13,2013-11-06 20:30:00,
2013-11-06 15:36:00,75.5,55.0,30.17,SW,236,4.0,4.0,49,0.00,,,0.00,Wunderground v.1.13,2013-11-06 20:36:00,
2013-11-06 15:42:00,75.6,55.1,30.17,SW,228,3.0,6.0,49,0.00,,,0.00,Wunderground v.1.13,2013-11-06 20:42:00,
2013-11-06 15:48:00,75.5,55.0,30.17,WSW,238,2.0,3.0,49,0.00,,,0.00,Wunderground v.1.13,2013-11-06 20:48:00,
2013-11-06 15:53:00,74.9,54.4,30.17,SSW,193,2.0,4.0,49,0.00,,,0.00,Wunderground v.1.13,2013-11-06 20:53:00,
2013-11-06 15:59:00,74.4,54.5,30.17,SSW,204,3.0,5.0,50,0.00,,,0.00,Wunderground v.1.13,2013-11-06 20:59:00,
2013-11-06 16:04:00,74.1,54.8,30.16,SSW,204,2.0,3.0,51,0.00,,,0.00,Wunderground v.1.13,2013-11-06 21:04:00,
2013-11-06 16:09:00,73.8,54.5,30.16,SW,216,2.0,4.0,51,0.00,,,0.00,Wunderground v.1.13,2013-11-06 21:09:00,
2013-11-06 16:15:00,73.4,54.2,30.16,SW,219,3.0,5.0,51,0.00,,,0.00,Wunderground v.1.13,2013-11-06 21:15:00,
2013-11-06 16:20:00,73.2,54.5,30.16,SW,232,3.0,7.0,52,0.00,,,0.00,Wunderground v.1.13,2013-11-06 21:20:00,
2013-11-06 16:26:00,72.9,54.2,30.16,WSW,245,4.0,6.0,52,0.00,,,0.00,Wunderground v.1.13,2013-11-06 21:26:00,
2013-11-06 16:32:00,72.7,54.1,30.16,WSW,245,3.0,4.0,52,0.00,,,0.00,Wunderground v.1.13,2013-11-06 21:32:00,
2013-11-06 16:38:00,72.6,54.5,30.16,WSW,245,2.0,4.0,53,0.00,,,0.00,Wunderground v.1.13,2013-11-06 21:38:00,
2013-11-06 16:43:00,72.6,54.5,30.16,WSW,245,2.0,5.0,53,0.00,,,0.00,Wunderground v.1.13,2013-11-06 21:43:00,
2013-11-06 16:49:00,72.5,54.9,30.16,WSW,245,2.0,4.0,54,0.00,,,0.00,Wunderground v.1.13,2013-11-06 21:49:00,
2013-11-06 16:54:00,72.4,54.8,30.16,WSW,246,3.0,4.0,54,0.00,,,0.00,Wunderground v.1.13,2013-11-06 21:54:00,
2013-11-06 17:00:00,72.2,55.1,30.15,WSW,246,1.0,1.0,55,0.00,,,0.00,Wunderground v.1.13,2013-11-06 22:00:00,
2013-11-06 17:06:00,71.9,54.9,30.15,WSW,246,0.0,1.0,55,0.00,,,0.00,Wunderground v.1.13,2013-11-06 22:06:00,
2013-11-06 17:12:00,71.7,54.7,30.15,WSW,246,0.0,0.0,55,0.00,,,0.00,Wunderground v.1.13,2013-11-06 22:12:00,
2013-11-06 17:17:00,71.3,54.8,30.15,WSW,246,0.0,0.0,56,0.00,,,0.00,Wunderground v.1.13,2013-11-06 22:17:00,
2013-11-06 17:23:00,70.9,54.9,30.15,WSW,246,0.0,0.0,57,0.00,,,0.00,Wunderground v.1.13,2013-11-06 22:23:00,
2013-11-06 17:29:00,70.4,54.4,30.15,WSW,246,0.0,0.0,57,0.00,,,0.00,Wunderground v.1.13,2013-11-06 22:29:00,
2013-11-06 17:34:00,69.9,54.4,30.15,WSW,246,0.0,0.0,58,0.00,,,0.00,Wunderground v.1.13,2013-11-06 22:34:00,
2013-11-06 17:40:00,69.3,54.4,30.15,WSW,246,0.0,0.0,59,0.00,,,0.00,Wunderground v.1.13,2013-11-06 22:40:00,
2013-11-06 17:46:00,68.6,54.2,30.15,WSW,246,0.0,0.0,60,0.00,,,0.00,Wunderground v.1.13,2013-11-06 22:46:00,
2013-11-06 17:51:00,67.9,53.5,30.15,WSW,246,0.0,0.0,60,0.00,,,0.00,Wunderground v.1.13,2013-11-06 22:51:00,
2013-11-06 17:57:00,67.0,53.5,30.15,WSW,246,0.0,0.0,62,0.00,,,0.00,Wunderground v.1.13,2013-11-06 22:57:00,
2013-11-06 18:02:00,66.1,53.1,30.15,WSW,246,0.0,0.0,63,0.00,,,0.00,Wunderground v.1.13,2013-11-06 23:02:00,
2013-11-06 18:07:00,65.4,52.5,30.15,WSW,246,0.0,0.0,63,0.00,,,0.00,Wunderground v.1.13,2013-11-06 23:07:00,
2013-11-06 18:13:00,64.7,52.2,30.15,WSW,246,0.0,0.0,64,0.00,,,0.00,Wunderground v.1.13,2013-11-06 23:13:00,
2013-11-06 18:19:00,63.9,52.3,30.15,WSW,246,0.0,0.0,66,0.00,,,0.00,Wunderground v.1.13,2013-11-06 23:19:00,
2013-11-06 18:24:00,63.3,51.7,30.15,WSW,246,0.0,0.0,66,0.00,,,0.00,Wunderground v.1.13,2013-11-06 23:24:00,
2013-11-06 18:30:00,62.6,51.5,30.15,WSW,246,0.0,0.0,67,0.00,,,0.00,Wunderground v.1.13,2013-11-06 23:30:00,
2013-11-06 18:36:00,61.8,51.1,30.15,WSW,246,0.0,0.0,68,0.00,,,0.00,Wunderground v.1.13,2013-11-06 23:36:00,
2013-11-06 18:42:00,60.9,50.7,30.15,WSW,246,0.0,0.0,69,0.00,,,0.00,Wunderground v.1.13,2013-11-06 23:42:00,
2013-11-06 18:47:00,60.2,50.8,30.15,WSW,246,0.0,0.0,71,0.00,,,0.00,Wunderground v.1.13,2013-11-06 23:47:00,
2013-11-06 18:53:00,59.5,50.1,30.15,WSW,246,0.0,0.0,71,0.00,,,0.00,Wunderground v.1.13,2013-11-06 23:53:00,
2013-11-06 18:58:00,59.0,50.0,30.15,WSW,246,0.0,0.0,72,0.00,,,0.00,Wunderground v.1.13,2013-11-06 23:58:00,
2013-11-06 19:04:00,58.6,50.0,30.15,WSW,246,0.0,0.0,73,0.00,,,0.00,Wunderground v.1.13,2013-11-07 00:04:00,
2013-11-06 19:10:00,58.1,49.9,30.15,WSW,246,0.0,0.0,74,0.00,,,0.00,Wunderground v.1.13,2013-11-07 00:10:00,
2013-11-06 19:16:00,57.6,49.4,30.15,WSW,246,0.0,0.0,74,0.00,,,0.00,Wunderground v.1.13,2013-11-07 00:16:00,
2013-11-06 19:21:00,57.3,49.4,30.15,WSW,246,0.0,0.0,75,0.00,,,0.00,Wunderground v.1.13,2013-11-07 00:21:00,
2013-11-06 19:27:00,57.2,49.7,30.15,WSW,246,0.0,2.0,76,0.00,,,0.00,Wunderground v.1.13,2013-11-07 00:27:00,
2013-11-06 19:32:00,57.4,49.9,30.14,WSW,246,0.0,0.0,76,0.00,,,0.00,Wunderground v.1.13,2013-11-07 00:32:00,
2013-11-06 19:38:00,57.6,50.1,30.15,WSW,246,0.0,0.0,76,0.00,,,0.00,Wunderground v.1.13,2013-11-07 00:38:00,
2013-11-06 19:43:00,57.8,50.3,30.14,WSW,246,0.0,0.0,76,0.00,,,0.00,Wunderground v.1.13,2013-11-07 00:43:00,
2013-11-06 19:49:00,57.9,50.0,30.14,WSW,246,0.0,0.0,75,0.00,,,0.00,Wunderground v.1.13,2013-11-07 00:49:00,
2013-11-06 19:55:00,57.8,49.9,30.14,WSW,246,0.0,0.0,75,0.00,,,0.00,Wunderground v.1.13,2013-11-07 00:55:00,
2013-11-06 20:00:00,57.7,49.5,30.14,WSW,246,0.0,0.0,74,0.00,,,0.00,Wunderground v.1.13,2013-11-07 01:00:00,
2013-11-06 20:05:00,57.7,49.8,30.14,WSW,246,0.0,0.0,75,0.00,,,0.00,Wunderground v.1.13,2013-11-07 01:05:00,
2013-11-06 20:11:00,57.5,49.6,30.14,WSW,246,0.0,0.0,75,0.00,,,0.00,Wunderground v.1.13,2013-11-07 01:11:00,
2013-11-06 20:17:00,57.4,49.5,30.14,WSW,246,0.0,0.0,75,0.00,,,0.00,Wunderground v.1.13,2013-11-07 01:17:00,
2013-11-06 20:22:00,57.3,49.8,30.13,WSW,246,0.0,0.0,76,0.00,,,0.00,Wunderground v.1.13,2013-11-07 01:22:00,
2013-11-06 20:28:00,57.4,49.9,30.13,WSW,246,0.0,0.0,76,0.00,,,0.00,Wunderground v.1.13,2013-11-07 01:28:00,
2013-11-06 20:33:00,57.7,50.2,30.13,WSW,246,0.0,0.0,76,0.00,,,0.00,Wunderground v.1.13,2013-11-07 01:33:00,
2013-11-06 20:39:00,58.1,50.6,30.13,WSW,246,0.0,0.0,76,0.00,,,0.00,Wunderground v.1.13,2013-11-07 01:39:00,
2013-11-06 20:44:00,58.5,51.0,30.13,WSW,246,0.0,1.0,76,0.00,,,0.00,Wunderground v.1.13,2013-11-07 01:44:00,
2013-11-06 20:50:00,59.0,51.1,30.13,WSW,246,0.0,0.0,75,0.00,,,0.00,Wunderground v.1.13,2013-11-07 01:50:00,
2013-11-06 20:56:00,59.7,51.4,30.13,WSW,246,0.0,0.0,74,0.00,,,0.00,Wunderground v.1.13,2013-11-07 01:56:00,
2013-11-06 21:02:00,60.2,51.5,30.13,WSW,246,0.0,0.0,73,0.00,,,0.00,Wunderground v.1.13,2013-11-07 02:02:00,
2013-11-06 21:08:00,60.5,51.4,30.13,WSW,246,0.0,0.0,72,0.00,,,0.00,Wunderground v.1.13,2013-11-07 02:08:00,
2013-11-06 21:13:00,60.7,51.6,30.13,WSW,246,0.0,0.0,72,0.00,,,0.00,Wunderground v.1.13,2013-11-07 02:13:00,
2013-11-06 21:19:00,60.7,51.2,30.13,WSW,246,0.0,0.0,71,0.00,,,0.00,Wunderground v.1.13,2013-11-07 02:19:00,
2013-11-06 21:25:00,60.5,51.0,30.13,WSW,246,0.0,0.0,71,0.00,,,0.00,Wunderground v.1.13,2013-11-07 02:25:00,
2013-11-06 21:31:00,60.2,50.8,30.13,WSW,246,0.0,0.0,71,0.00,,,0.00,Wunderground v.1.13,2013-11-07 02:31:00,
2013-11-06 21:36:00,59.8,50.4,30.13,WSW,246,0.0,0.0,71,0.00,,,0.00,Wunderground v.1.13,2013-11-07 02:36:00,
2013-11-06 21:41:00,59.0,50.0,30.14,WSW,246,0.0,0.0,72,0.00,,,0.00,Wunderground v.1.13,2013-11-07 02:41:00,
2013-11-06 21:47:00,58.7,50.1,30.13,WSW,246,0.0,0.0,73,0.00,,,0.00,Wunderground v.1.13,2013-11-07 02:47:00,
2013-11-06 21:52:00,58.2,49.6,30.14,WSW,246,0.0,0.0,73,0.00,,,0.00,Wunderground v.1.13,2013-11-07 02:52:00,
2013-11-06 21:58:00,57.7,49.5,30.14,WSW,246,0.0,0.0,74,0.00,,,0.00,Wunderground v.1.13,2013-11-07 02:58:00,
2013-11-06 22:03:00,57.4,49.5,30.14,WSW,246,0.0,0.0,75,0.00,,,0.00,Wunderground v.1.13,2013-11-07 03:03:00,
2013-11-06 22:09:00,57.0,49.5,30.13,WSW,246,0.0,0.0,76,0.00,,,0.00,Wunderground v.1.13,2013-11-07 03:09:00,
2013-11-06 22:14:00,56.7,49.6,30.13,WSW,246,0.0,0.0,77,0.00,,,0.00,Wunderground v.1.13,2013-11-07 03:14:00,
2013-11-06 22:20:00,56.5,49.7,30.13,WSW,246,0.0,0.0,78,0.00,,,0.00,Wunderground v.1.13,2013-11-07 03:20:00,
2013-11-06 22:26:00,56.2,49.4,30.13,WSW,246,0.0,0.0,78,0.00,,,0.00,Wunderground v.1.13,2013-11-07 03:26:00,
2013-11-06 22:31:00,55.9,49.1,30.13,WSW,246,0.0,0.0,78,0.00,,,0.00,Wunderground v.1.13,2013-11-07 03:31:00,
2013-11-06 22:37:00,55.6,48.8,30.13,WSW,246,0.0,0.0,78,0.00,,,0.00,Wunderground v.1.13,2013-11-07 03:37:00,
2013-11-06 22:43:00,55.3,48.9,30.13,WSW,246,0.0,0.0,79,0.00,,,0.00,Wunderground v.1.13,2013-11-07 03:43:00,
2013-11-06 22:49:00,54.9,48.5,30.13,WSW,246,0.0,0.0,79,0.00,,,0.00,Wunderground v.1.13,2013-11-07 03:49:00,
2013-11-06 22:54:00,54.6,48.6,30.13,WSW,246,0.0,0.0,80,0.00,,,0.00,Wunderground v.1.13,2013-11-07 03:54:00,
2013-11-06 23:00:00,54.3,48.3,30.13,WSW,246,0.0,0.0,80,0.00,,,0.00,Wunderground v.1.13,2013-11-07 04:00:00,
2013-11-06 23:05:00,54.0,48.3,30.13,WSW,246,0.0,0.0,81,0.00,,,0.00,Wunderground v.1.13,2013-11-07 04:05:00,
2013-11-06 23:11:00,53.7,48.3,30.12,WSW,246,0.0,0.0,82,0.00,,,0.00,Wunderground v.1.13,2013-11-07 04:11:00,
2013-11-06 23:16:00,53.5,48.1,30.12,WSW,246,0.0,0.0,82,0.00,,,0.00,Wunderground v.1.13,2013-11-07 04:16:00,
2013-11-06 23:22:00,53.5,48.5,30.13,WSW,246,0.0,0.0,83,0.00,,,0.00,Wunderground v.1.13,2013-11-07 04:22:00,
2013-11-06 23:27:00,53.4,48.4,30.12,WSW,246,0.0,0.0,83,0.00,,,0.00,Wunderground v.1.13,2013-11-07 04:27:00,
2013-11-06 23:32:00,53.3,48.3,30.12,WSW,246,0.0,0.0,83,0.00,,,0.00,Wunderground v.1.13,2013-11-07 04:32:00,
2013-11-06 23:38:00,53.3,48.6,30.12,WSW,246,0.0,0.0,84,0.00,,,0.00,Wunderground v.1.13,2013-11-07 04:38:00,
2013-11-06 23:44:00,53.3,48.6,30.12,WSW,246,0.0,0.0,84,0.00,,,0.00,Wunderground v.1.13,2013-11-07 04:44:00,
2013-11-06 23:50:00,53.4,48.7,30.12,WSW,246,0.0,0.0,84,0.00,,,0.00,Wunderground v.1.13,2013-11-07 04:50:00,
2013-11-06 23:55:00,53.5,49.1,30.12,WSW,246,0.0,0.0,85,0.00,,,0.00,Wunderground v.1.13,2013-11-07 04:55:00,